When you browse on this site, cookies collect data to enhance your experience and personalize the content and advertising you see.
Visit our Privacy Policy to learn more. By continuing to use the site, you agree to this use of cookies and data.
EN

Hourly Weather Zelenyi Hai

Today, 3 August, Monday

Time Temperature Precipitation Wind Pressure Humidity
00:00 +19°C° 0 mm 3 mps 756 mmHg 62%
01:00 +18°C° 0 mm 3 mps 756 mmHg 64%
02:00 +17°C° 0 mm 2 mps 757 mmHg 66%
03:00 +17°C° 0 mm 2 mps 757 mmHg 69%
04:00 +17°C° 0 mm 2 mps 757 mmHg 71%
05:00 +16°C° 0 mm 2 mps 757 mmHg 73%
06:00 +18°C° 0 mm 2 mps 757 mmHg 67%
07:00 +20°C° 0 mm 2 mps 757 mmHg 60%
08:00 +22°C° 0 mm 3 mps 758 mmHg 51%
09:00 +25°C° 0 mm 2 mps 758 mmHg 46%
10:00 +26°C° 0 mm 2 mps 758 mmHg 42%
11:00 +27°C° 0 mm 1 mps 758 mmHg 37%
12:00 +28°C° 0 mm 1 mps 757 mmHg 35%
13:00 +28°C° 0 mm 2 mps 757 mmHg 33%
14:00 +29°C° 0 mm 2 mps 757 mmHg 31%
15:00 +29°C° 0 mm 2 mps 757 mmHg 31%
16:00 +29°C° 0 mm 2 mps 757 mmHg 31%
17:00 +29°C° 0 mm 3 mps 756 mmHg 31%
18:00 +27°C° 0 mm 2 mps 756 mmHg 37%
19:00 +25°C° 0 mm 2 mps 756 mmHg 44%
20:00 +23°C° 0 mm 2 mps 756 mmHg 50%
21:00 +21°C° 0 mm 2 mps 756 mmHg 52%
22:00 +22°C° 0 mm 1 mps 756 mmHg 54%
23:00 +21°C° 0 mm 1 mps 756 mmHg 56%

Tomorrow, 4 August, Tuesday

Time Temperature Precipitation Wind Pressure Humidity
00:00 +21°C° 0 mm 1 mps 757 mmHg 56%
01:00 +21°C° 0 mm 1 mps 757 mmHg 56%
02:00 +19°C° 0 mm 2 mps 757 mmHg 57%
03:00 +19°C° 0 mm 2 mps 757 mmHg 59%
04:00 +19°C° 0 mm 2 mps 757 mmHg 61%
05:00 +19°C° 0 mm 2 mps 756 mmHg 63%
06:00 +21°C° 0 mm 3 mps 757 mmHg 58%
07:00 +24°C° 0 mm 3 mps 757 mmHg 52%
08:00 +26°C° 0 mm 4 mps 757 mmHg 47%
09:00 +27°C° 0 mm 4 mps 757 mmHg 42%
10:00 +29°C° 0 mm 4 mps 757 mmHg 38%
11:00 +30°C° 0 mm 4 mps 756 mmHg 33%
12:00 +32°C° 0 mm 4 mps 756 mmHg 32%
13:00 +32°C° 0 mm 4 mps 756 mmHg 30%
14:00 +33°C° 0 mm 4 mps 756 mmHg 28%
15:00 +33°C° 0 mm 4 mps 756 mmHg 30%
16:00 +32°C° 0 mm 4 mps 755 mmHg 31%
17:00 +32°C° 0 mm 4 mps 755 mmHg 32%
18:00 +29°C° 0 mm 3 mps 755 mmHg 38%
19:00 +27°C° 0 mm 3 mps 755 mmHg 45%
20:00 +25°C° 0 mm 3 mps 755 mmHg 51%
21:00 +25°C° 0 mm 3 mps 756 mmHg 52%
22:00 +24°C° 0 mm 2 mps 756 mmHg 54%
23:00 +23°C° 0 mm 2 mps 756 mmHg 55%

Day after tomorrow, 5 August, Wednesday

Time Temperature Precipitation Wind Pressure Humidity
00:00 +21°C° 0 mm 2 mps 756 mmHg 55%
01:00 +21°C° 0 mm 2 mps 756 mmHg 54%
02:00 +22°C° 0 mm 1 mps 756 mmHg 53%
03:00 +20°C° 0 mm 2 mps 756 mmHg 55%
04:00 +20°C° 0 mm 2 mps 756 mmHg 56%
05:00 +20°C° 0 mm 3 mps 756 mmHg 57%
06:00 +22°C° 0 mm 3 mps 756 mmHg 53%
07:00 +25°C° 0 mm 4 mps 756 mmHg 48%
08:00 +27°C° 0 mm 4 mps 756 mmHg 44%
09:00 +28°C° 0 mm 5 mps 757 mmHg 39%
10:00 +30°C° 0 mm 5 mps 757 mmHg 34%
11:00 +32°C° 0 mm 5 mps 757 mmHg 29%
12:00 +33°C° 0 mm 5 mps 757 mmHg 28%
13:00 +33°C° 0 mm 5 mps 756 mmHg 27%
14:00 +34°C° 0 mm 6 mps 756 mmHg 27%
15:00 +33°C° 0 mm 6 mps 756 mmHg 27%
16:00 +33°C° 0 mm 6 mps 756 mmHg 27%
17:00 +32°C° 0 mm 5 mps 756 mmHg 28%
18:00 +30°C° 0 mm 5 mps 756 mmHg 32%
19:00 +28°C° 0 mm 4 mps 756 mmHg 36%
20:00 +26°C° 0 mm 3 mps 756 mmHg 40%
21:00 +25°C° 0 mm 3 mps 757 mmHg 42%
22:00 +24°C° 0 mm 3 mps 757 mmHg 45%
23:00 +24°C° 0 mm 3 mps 757 mmHg 48%

6 August, Thursday

Time Temperature Precipitation Wind Pressure Humidity
00:00 +22°C° 0 mm 4 mps 757 mmHg 51%
01:00 +22°C° 0 mm 4 mps 757 mmHg 54%
02:00 +21°C° 0 mm 4 mps 757 mmHg 58%
03:00 +21°C° 0 mm 4 mps 757 mmHg 60%
04:00 +20°C° 0 mm 4 mps 757 mmHg 63%
05:00 +20°C° 0 mm 4 mps 757 mmHg 65%
06:00 +22°C° 0 mm 5 mps 758 mmHg 60%
07:00 +25°C° 0 mm 5 mps 758 mmHg 54%
08:00 +27°C° 0 mm 5 mps 758 mmHg 49%
09:00 +28°C° 0 mm 6 mps 758 mmHg 44%
10:00 +30°C° 0 mm 6 mps 758 mmHg 40%
11:00 +33°C° 0 mm 6 mps 758 mmHg 36%
12:00 +34°C° 0 mm 6 mps 758 mmHg 34%
13:00 +35°C° 0 mm 6 mps 758 mmHg 32%
14:00 +35°C° 0 mm 5 mps 758 mmHg 30%
15:00 +35°C° 0 mm 5 mps 757 mmHg 31%
16:00 +35°C° 0 mm 5 mps 757 mmHg 31%
17:00 +35°C° 0 mm 5 mps 757 mmHg 32%
18:00 +33°C° 0 mm 5 mps 757 mmHg 36%
19:00 +30°C° 0 mm 4 mps 757 mmHg 40%
20:00 +28°C° 0 mm 3 mps 757 mmHg 45%
21:00 +28°C° 0 mm 3 mps 758 mmHg 47%
22:00 +27°C° 0 mm 4 mps 758 mmHg 50%
23:00 +26°C° 0 mm 4 mps 758 mmHg 52%

7 August, Friday

Time Temperature Precipitation Wind Pressure Humidity
00:00 +26°C° 0 mm 4 mps 758 mmHg 54%
01:00 +25°C° 0 mm 4 mps 758 mmHg 57%
02:00 +25°C° 0 mm 4 mps 758 mmHg 59%
03:00 +23°C° 0 mm 5 mps 758 mmHg 61%
04:00 +23°C° 0 mm 5 mps 758 mmHg 63%
05:00 +22°C° 0 mm 5 mps 758 mmHg 65%
06:00 +25°C° 0 mm 5 mps 758 mmHg 60%
07:00 +26°C° 0 mm 6 mps 758 mmHg 55%
08:00 +28°C° 0 mm 6 mps 758 mmHg 49%
09:00 +30°C° 0 mm 6 mps 758 mmHg 44%
10:00 +33°C° 0 mm 6 mps 759 mmHg 38%
11:00 +34°C° 0 mm 6 mps 759 mmHg 32%
12:00 +35°C° 0 mm 6 mps 758 mmHg 31%
13:00 +36°C° 0 mm 6 mps 758 mmHg 29%
14:00 +36°C° 0 mm 6 mps 757 mmHg 27%
15:00 +36°C° 0 mm 6 mps 757 mmHg 27%
16:00 +36°C° 0 mm 6 mps 757 mmHg 27%
17:00 +35°C° 0 mm 6 mps 757 mmHg 27%
18:00 +33°C° 0 mm 5 mps 757 mmHg 30%
19:00 +30°C° 0 mm 5 mps 757 mmHg 34%
20:00 +28°C° 0 mm 4 mps 757 mmHg 37%
21:00 +27°C° 0 mm 4 mps 757 mmHg 41%
22:00 +26°C° 0 mm 4 mps 757 mmHg 46%
23:00 +26°C° 0 mm 4 mps 757 mmHg 50%

8 August, Saturday

Time Temperature Precipitation Wind Pressure Humidity
00:00 +25°C° 0 mm 4 mps 756 mmHg 55%
01:00 +25°C° 0 mm 5 mps 756 mmHg 59%
02:00 +23°C° 0 mm 5 mps 756 mmHg 64%
03:00 +23°C° 0 mm 5 mps 756 mmHg 69%
04:00 +22°C° 0 mm 5 mps 756 mmHg 74%
05:00 +22°C° 0 mm 5 mps 756 mmHg 78%
06:00 +23°C° 0 mm 6 mps 756 mmHg 72%
07:00 +24°C° 0 mm 6 mps 756 mmHg 66%
08:00 +27°C° 0 mm 6 mps 756 mmHg 60%
09:00 +28°C° 0 mm 6 mps 756 mmHg 55%
10:00 +30°C° 0 mm 6 mps 756 mmHg 49%
11:00 +33°C° 0 mm 6 mps 755 mmHg 44%
12:00 +33°C° 0 mm 6 mps 755 mmHg 43%
13:00 +33°C° 0 mm 6 mps 755 mmHg 42%
14:00 +33°C° 0 mm 6 mps 754 mmHg 40%
15:00 +33°C° 0 mm 6 mps 754 mmHg 40%
16:00 +33°C° 0 mm 6 mps 754 mmHg 41%
17:00 +33°C° 0 mm 6 mps 754 mmHg 41%
18:00 +30°C° 0 mm 6 mps 754 mmHg 43%
19:00 +29°C° 0 mm 5 mps 754 mmHg 46%
20:00 +28°C° 0 mm 5 mps 754 mmHg 48%
21:00 +27°C° 0 mm 5 mps 754 mmHg 49%
22:00 +26°C° 0 mm 5 mps 754 mmHg 49%
23:00 +26°C° 0 mm 5 mps 754 mmHg 50%
Show more